Total_Precipitation_Accumulation
2.44 2.52 2.46 2.39 2.38 2.33 2.36 2.57 2.75 2.55 2.29 2.06 1.92 1.90 1.96 1.96 2.02 1.78 1.72 1.60 1.40 1.41 1.48 1.53 1.74 2.04 2.29 2.54 2.75 2.74 2.97 3.19 3.27 3.43 3.53 3.47 3.47 3.38
2.43 2.55 2.59 2.54 2.55 2.52 2.44 2.45 2.44 2.49 2.34 2.05 1.86 1.82 2.01 1.97 2.11 1.78 1.73 1.90 1.64 1.56 1.51 1.39 1.40 1.46 1.56 1.79 2.12 2.30 2.35 2.43 2.53 2.82 3.13 3.23 3.17 3.06
2.21 2.33 2.48 2.54 2.65 2.70 2.74 2.66 2.55 2.51 2.40 2.12 1.91 1.83 2.06 2.12 2.07 1.97 1.80 1.74 1.72 1.72 1.60 1.51 1.43 1.31 1.34 1.43 1.69 1.94 2.17 2.03 1.87 2.03 2.33 2.51 2.77 2.89
2.12 2.08 2.15 2.24 2.36 2.53 2.65 2.63 2.65 2.56 2.49 2.42 2.19 1.95 1.88 1.98 2.07 2.19 2.06 1.82 1.77 1.90 1.80 1.68 1.59 1.44 1.32 1.29 1.40 1.51 1.71 1.80 1.61 1.49 1.65 1.84 2.04 2.31
1.97 1.86 1.83 1.94 2.07 2.22 2.30 2.42 2.57 2.62 2.64 2.58 2.47 2.24 1.98 1.99 2.09 2.16 2.17 2.23 1.97 1.92 1.89 1.83 1.75 1.68 1.56 1.36 1.27 1.29 1.32 1.45 1.45 1.32 1.29 1.46 1.61 1.81
1.69 1.61 1.59 1.62 1.75 1.93 2.05 2.27 2.50 2.63 2.69 2.67 2.61 2.34 2.12 2.07 2.06 2.13 2.26 2.32 2.26 2.02 1.94 1.82 1.89 1.83 1.65 1.50 1.35 1.30 1.33 1.38 1.42 1.41 1.26 1.21 1.30 1.37
1.51 1.33 1.28 1.35 1.40 1.54 1.55 1.83 2.13 2.39 2.50 2.55 2.54 2.36 2.11 2.01 1.86 1.93 2.10 2.29 2.33 2.26 2.19 1.90 1.80 1.73 1.67 1.64 1.51 1.42 1.36 1.44 1.47 1.49 1.47 1.31 1.27 1.25
1.37 1.23 1.16 1.19 1.14 1.17 1.21 1.46 1.77 1.96 2.11 2.28 2.35 2.21 2.02 1.92 1.96 1.96 1.98 2.03 2.06 1.96 1.98 2.01 1.87 1.76 1.68 1.64 1.67 1.61 1.49 1.46 1.52 1.51 1.55 1.52 1.42 1.43
1.30 1.32 1.20 1.11 1.23 1.11 1.09 1.19 1.28 1.43 1.59 1.84 2.03 2.00 2.10 2.01 1.90 1.81 1.82 1.85 1.87 1.91 1.94 1.98 1.84 1.72 1.59 1.56 1.73 1.62 1.59 1.56 1.59 1.64 1.59 1.65 1.61 1.56
1.35 1.44 1.43 1.32 1.30 1.39 1.31 1.29 1.23 1.18 1.32 1.23 1.39 1.77 1.94 2.02 1.97 1.98 2.07 1.98 1.81 1.81 1.86 1.92 1.77 1.64 1.50 1.41 1.54 1.45 1.38 1.38 1.49 1.68 1.78 1.79 1.84 1.80
1.24 1.39 1.46 1.36 1.49 1.62 1.65 1.64 1.53 1.34 1.49 1.52 1.41 1.52 1.71 1.79 1.89 1.94 1.97 1.90 1.82 1.70 1.58 1.62 1.53 1.52 1.54 1.45 1.41 1.47 1.39 1.33 1.30 1.33 1.44 1.54 1.70 1.89
1.27 1.31 1.53 1.45 1.46 1.46 1.48 1.59 1.54 1.35 1.21 1.22 1.21 1.13 1.08 1.21 1.46 1.56 1.81 1.94 1.89 1.76 1.54 1.52 1.56 1.56 1.56 1.40 1.29 1.33 1.35 1.43 1.39 1.31 1.33 1.40 1.53 1.61
1.36 1.39 1.38 1.55 1.41 1.35 1.33 1.28 1.38 1.38 1.36 1.39 1.43 1.30 1.20 1.17 1.19 1.25 1.47 1.73 1.89 1.77 1.59 1.51 1.56 1.58 1.49 1.29 1.20 1.20 1.22 1.23 1.27 1.33 1.38 1.48 1.56 1.52
1.19 1.20 1.18 1.34 1.20 1.15 1.08 1.12 1.24 1.30 1.36 1.50 1.48 1.40 1.35 1.29 1.26 1.28 1.35 1.46 1.55 1.63 1.66 1.67 1.64 1.58 1.50 1.31 1.21 1.19 1.18 1.18 1.16 1.19 1.22 1.47 1.62 1.69
0.93 1.10 1.13 1.12 1.05 0.97 1.03 1.08 1.11 1.13 1.24 1.35 1.35 1.27 1.26 1.32 1.34 1.32 1.35 1.40 1.38 1.32 1.35 1.45 1.58 1.62 1.58 1.44 1.25 1.22 1.24 1.19 1.14 1.14 1.17 1.23 1.28 1.44
0.86 0.96 1.01 0.96 0.94 0.94 0.98 1.02 1.04 1.10 1.19 1.21 1.21 1.22 1.22 1.29 1.38 1.36 1.36 1.44 1.50 1.39 1.32 1.38 1.49 1.65 1.62 1.46 1.39 1.30 1.28 1.29 1.21 1.17 1.14 1.18 1.27 1.35
0.97 0.94 0.93 0.91 0.89 0.95 0.97 0.97 1.03 1.09 1.10 1.07 1.13 1.17 1.18 1.23 1.26 1.26 1.31 1.36 1.39 1.30 1.27 1.34 1.42 1.52 1.56 1.55 1.56 1.43 1.40 1.41 1.41 1.38 1.32 1.25 1.23 1.29
1.02 1.07 1.09 1.12 1.13 1.12 1.08 0.99 0.95 0.99 1.06 1.12 1.17 1.19 1.20 1.19 1.22 1.23 1.26 1.34 1.35 1.25 1.19 1.22 1.36 1.52 1.52 1.38 1.29 1.27 1.30 1.33 1.41 1.52 1.49 1.38 1.27 1.26
0.97 1.13 1.15 1.12 1.08 1.05 1.01 0.96 0.90 0.87 0.91 1.03 1.16 1.27 1.27 1.26 1.29 1.33 1.32 1.28 1.26 1.26 1.20 1.16 1.26 1.45 1.49 1.26 1.07 1.05 1.10 1.14 1.26 1.36 1.41 1.34 1.23 1.25
0.90 0.99 1.01 1.00 0.95 0.90 0.85 0.81 0.83 0.83 0.85 0.90 0.94 1.04 1.20 1.30 1.37 1.40 1.44 1.47 1.46 1.41 1.35 1.23 1.19 1.27 1.41 1.35 1.16 0.99 0.99 1.07 1.20 1.26 1.27 1.29 1.27 1.33
0.79 0.80 0.78 0.77 0.78 0.77 0.76 0.79 0.84 0.83 0.84 0.87 0.87 0.89 1.00 1.16 1.32 1.42 1.47 1.57 1.54 1.50 1.47 1.35 1.31 1.50 1.44 1.46 1.39 1.09 0.93 1.03 1.15 1.17 1.21 1.33 1.35 1.30
0.73 0.73 0.76 0.75 0.72 0.72 0.75 0.79 0.86 0.89 0.86 0.88 0.93 0.96 1.04 1.11 1.16 1.26 1.43 1.48 1.40 1.34 1.34 1.35 1.41 1.50 1.50 1.57 1.47 1.24 1.10 1.05 1.12 1.23 1.27 1.35 1.35 1.35
0.70 0.71 0.75 0.76 0.75 0.79 0.79 0.81 0.86 0.90 0.90 0.90 0.91 0.98 1.05 1.14 1.19 1.22 1.26 1.31 1.36 1.39 1.39 1.40 1.41 1.44 1.48 1.53 1.59 1.52 1.37 1.25 1.21 1.23 1.22 1.37 1.36 1.22